| time (UTC) | temp C | wind direction | speed KPH | gust KPH | rain 1hr cm | rain 24hr cm | rain mn cm | humidity % | barometer mb |
| 20260504035941 | 14 | 0 | 1.6 | 8.0 | 0.00 | 0.13 | 0.13 | 70 | 983.7 |
| 20260504035441 | 14 | 0 | 1.6 | 8.0 | 0.00 | 0.13 | 0.13 | 70 | 983.8 |
| 20260504034937 | 14 | 194 | 1.6 | 6.4 | 0.00 | 0.13 | 0.13 | 69 | 983.8 |
| 20260504034708 | 14 | 192 | 1.6 | 6.4 | 0.00 | 0.13 | 0.13 | 69 | 983.8 |
| 20260504033939 | 14 | 183 | 1.6 | 6.4 | 0.00 | 0.13 | 0.13 | 69 | 983.9 |
| 20260504033438 | 14 | 220 | 1.6 | 4.8 | 0.00 | 0.13 | 0.13 | 69 | 984.0 |
| 20260504032937 | 15 | 0 | 1.6 | 4.8 | 0.00 | 0.13 | 0.13 | 69 | 984.0 |
| 20260504032438 | 15 | 0 | 1.6 | 4.8 | 0.00 | 0.13 | 0.13 | 68 | 984.1 |
| 20260504031938 | 15 | 0 | 0.0 | 3.2 | 0.00 | 0.13 | 0.13 | 68 | 984.1 |
| 20260504031658 | 15 | 186 | 1.6 | 6.4 | 0.00 | 0.13 | 0.13 | 67 | 984.1 |
| 20260504030936 | 15 | 0 | 1.6 | 6.4 | 0.00 | 0.13 | 0.13 | 66 | 984.1 |
| 20260504030433 | 15 | 182 | 1.6 | 6.4 | 0.00 | 0.13 | 0.13 | 65 | 984.1 |
| 20260504025934 | 15 | 175 | 1.6 | 6.4 | 0.00 | 0.13 | 0.13 | 65 | 984.1 |
| 20260504025433 | 15 | 194 | 1.6 | 6.4 | 0.00 | 0.13 | 0.13 | 65 | 984.2 |
| 20260504025151 | 15 | 215 | 1.6 | 6.4 | 0.00 | 0.13 | 0.13 | 65 | 984.1 |
| 20260504024430 | 15 | 0 | 1.6 | 4.8 | 0.00 | 0.13 | 0.13 | 65 | 984.0 |
| 20260504023930 | 15 | 183 | 1.6 | 6.4 | 0.00 | 0.13 | 0.13 | 65 | 984.1 |
| 20260504023430 | 15 | 168 | 3.2 | 6.4 | 0.00 | 0.13 | 0.13 | 64 | 984.1 |
| 20260504022930 | 15 | 186 | 1.6 | 6.4 | 0.00 | 0.13 | 0.13 | 64 | 984.1 |
| 20260504022430 | 15 | 252 | 1.6 | 6.4 | 0.00 | 0.13 | 0.13 | 64 | 984.1 |
| 20260504021931 | 15 | 0 | 1.6 | 9.7 | 0.00 | 0.13 | 0.13 | 63 | 984.0 |
| 20260504021428 | 16 | 275 | 1.6 | 9.7 | 0.00 | 0.13 | 0.13 | 63 | 984.0 |
| 20260504020925 | 16 | 191 | 1.6 | 8.0 | 0.00 | 0.13 | 0.13 | 62 | 984.0 |
| 20260504020425 | 16 | 175 | 3.2 | 9.7 | 0.00 | 0.13 | 0.13 | 62 | 984.0 |
| 20260504020146 | 16 | 168 | 3.2 | 9.7 | 0.00 | 0.13 | 0.13 | 61 | 983.9 |
| 20260504015422 | 16 | 185 | 3.2 | 12.9 | 0.00 | 0.13 | 0.13 | 61 | 983.8 |
| 20260504015140 | 16 | 177 | 3.2 | 12.9 | 0.00 | 0.13 | 0.13 | 60 | 983.8 |
| 20260504014422 | 16 | 182 | 3.2 | 9.7 | 0.00 | 0.13 | 0.13 | 60 | 983.8 |
| 20260504013922 | 16 | 205 | 3.2 | 9.7 | 0.00 | 0.13 | 0.13 | 59 | 983.7 |
| 20260504013424 | 17 | 194 | 3.2 | 9.7 | 0.00 | 0.13 | 0.13 | 59 | 983.8 |
| 20260504012922 | 17 | 157 | 3.2 | 9.7 | 0.00 | 0.13 | 0.13 | 58 | 983.8 |
| 20260504012642 | 17 | 194 | 3.2 | 9.7 | 0.00 | 0.13 | 0.13 | 58 | 983.7 |
| 20260504011920 | 17 | 199 | 3.2 | 9.7 | 0.00 | 0.13 | 0.13 | 58 | 983.7 |
| 20260504011420 | 17 | 216 | 3.2 | 9.7 | 0.00 | 0.13 | 0.13 | 57 | 983.7 |
| 20260504011145 | 17 | 290 | 3.2 | 9.7 | 0.00 | 0.13 | 0.13 | 57 | 983.7 |
| 20260504010420 | 17 | 201 | 3.2 | 9.7 | 0.00 | 0.13 | 0.13 | 57 | 983.7 |
| 20260504005919 | 17 | 230 | 3.2 | 9.7 | 0.00 | 0.13 | 0.13 | 57 | 983.7 |
| 20260504005420 | 17 | 244 | 3.2 | 9.7 | 0.00 | 0.13 | 0.13 | 56 | 983.7 |
| 20260504004920 | 17 | 205 | 3.2 | 9.7 | 0.00 | 0.13 | 0.13 | 55 | 983.6 |
| 20260504004420 | 18 | 279 | 3.2 | 9.7 | 0.00 | 0.13 | 0.13 | 55 | 983.5 |
| 20260504003922 | 18 | 196 | 3.2 | 9.7 | 0.00 | 0.13 | 0.13 | 54 | 983.6 |
| 20260504003644 | 18 | 201 | 3.2 | 9.7 | 0.00 | 0.13 | 0.13 | 54 | 983.6 |
| 20260504002921 | 18 | 177 | 4.8 | 14.5 | 0.00 | 0.13 | 0.13 | 54 | 983.6 |
| 20260504002421 | 18 | 174 | 6.4 | 14.5 | 0.00 | 0.13 | 0.13 | 52 | 983.6 |
| 20260504001918 | 18 | 228 | 6.4 | 14.5 | 0.00 | 0.13 | 0.13 | 52 | 983.6 |
| 20260504001414 | 18 | 251 | 6.4 | 14.5 | 0.00 | 0.13 | 0.13 | 51 | 983.6 |
| 20260504000915 | 18 | 184 | 6.4 | 14.5 | 0.00 | 0.13 | 0.13 | 51 | 983.6 |
| 20260504000412 | 18 | 174 | 6.4 | 14.5 | 0.00 | 0.13 | 0.13 | 51 | 983.7 |
| 20260503235912 | 19 | 213 | 6.4 | 12.9 | 0.00 | 0.13 | 0.13 | 50 | 983.7 |
| 20260503235412 | 19 | 171 | 6.4 | 14.5 | 0.00 | 0.13 | 0.13 | 50 | 983.8 |
| 20260503234912 | 19 | 257 | 6.4 | 16.1 | 0.00 | 0.13 | 0.13 | 51 | 983.8 |
| 20260503234412 | 19 | 222 | 6.4 | 17.7 | 0.00 | 0.13 | 0.13 | 49 | 983.7 |
| 20260503234137 | 19 | 241 | 6.4 | 17.7 | 0.00 | 0.13 | 0.13 | 50 | 983.8 |
| 20260503233413 | 19 | 113 | 6.4 | 17.7 | 0.00 | 0.13 | 0.13 | 49 | 983.7 |
| 20260503232912 | 19 | 38 | 6.4 | 12.9 | 0.00 | 0.13 | 0.13 | 50 | 983.7 |
| 20260503232635 | 19 | 172 | 6.4 | 12.9 | 0.00 | 0.13 | 0.13 | 48 | 983.7 |
| 20260503232355 | 19 | 351 | 6.4 | 16.1 | 0.00 | 0.13 | 0.13 | 48 | 983.8 |
| 20260503231407 | 19 | 162 | 8.0 | 16.1 | 0.00 | 0.13 | 0.13 | 48 | 983.8 |
| 20260503230908 | 19 | 185 | 6.4 | 16.1 | 0.00 | 0.13 | 0.13 | 48 | 983.8 |
| 20260503230626 | 19 | 243 | 6.4 | 16.1 | 0.00 | 0.13 | 0.13 | 48 | 983.8 |
| 20260503225906 | 19 | 208 | 6.4 | 20.9 | 0.00 | 0.13 | 0.13 | 48 | 983.9 |
| 20260503225405 | 19 | 194 | 8.0 | 20.9 | 0.00 | 0.13 | 0.13 | 48 | 983.9 |
| 20260503224904 | 19 | 208 | 8.0 | 19.3 | 0.00 | 0.13 | 0.13 | 47 | 983.7 |
| 20260503224629 | 19 | 190 | 6.4 | 16.1 | 0.00 | 0.13 | 0.13 | 47 | 983.8 |
| 20260503223906 | 19 | 171 | 6.4 | 16.1 | 0.00 | 0.13 | 0.13 | 47 | 983.9 |
| 20260503223405 | 19 | 190 | 6.4 | 17.7 | 0.00 | 0.13 | 0.13 | 48 | 984.1 |
| 20260503222904 | 19 | 262 | 6.4 | 17.7 | 0.00 | 0.13 | 0.13 | 46 | 984.1 |
| 20260503222405 | 19 | 181 | 6.4 | 17.7 | 0.00 | 0.13 | 0.13 | 47 | 984.0 |
| 20260503221903 | 19 | 214 | 8.0 | 20.9 | 0.00 | 0.13 | 0.13 | 46 | 984.2 |
| 20260503221402 | 19 | 209 | 8.0 | 20.9 | 0.00 | 0.13 | 0.13 | 46 | 984.1 |
| 20260503220901 | 19 | 183 | 6.4 | 14.5 | 0.00 | 0.13 | 0.13 | 47 | 984.2 |
| 20260503220628 | 19 | 172 | 6.4 | 12.9 | 0.00 | 0.13 | 0.13 | 47 | 984.3 |
| 20260503215902 | 19 | 208 | 6.4 | 12.9 | 0.00 | 0.13 | 0.13 | 47 | 984.2 |
| 20260503215359 | 19 | 240 | 6.4 | 14.5 | 0.00 | 0.13 | 0.13 | 46 | 984.2 |
| 20260503214900 | 19 | 49 | 6.4 | 16.1 | 0.00 | 0.13 | 0.13 | 47 | 984.2 |
| 20260503214400 | 19 | 1 | 9.7 | 19.3 | 0.00 | 0.13 | 0.13 | 46 | 984.3 |
| 20260503213900 | 19 | 223 | 8.0 | 19.3 | 0.00 | 0.13 | 0.13 | 46 | 984.2 |
| 20260503213401 | 19 | 186 | 8.0 | 19.3 | 0.00 | 0.13 | 0.13 | 46 | 984.4 |
| 20260503212900 | 18 | 192 | 8.0 | 20.9 | 0.00 | 0.13 | 0.13 | 46 | 984.4 |
| 20260503212400 | 18 | 236 | 8.0 | 20.9 | 0.00 | 0.13 | 0.13 | 46 | 984.4 |
| 20260503212116 | 18 | 293 | 8.0 | 17.7 | 0.00 | 0.13 | 0.13 | 46 | 984.4 |
| 20260503211400 | 18 | 168 | 8.0 | 17.7 | 0.00 | 0.13 | 0.13 | 46 | 984.6 |
| 20260503211125 | 18 | 190 | 9.7 | 25.7 | 0.00 | 0.13 | 0.13 | 46 | 984.7 |
| 20260503210400 | 18 | 177 | 9.7 | 25.7 | 0.00 | 0.13 | 0.13 | 46 | 984.8 |
| 20260503205859 | 18 | 184 | 9.7 | 20.9 | 0.00 | 0.13 | 0.13 | 46 | 984.9 |
| 20260503205400 | 18 | 194 | 8.0 | 20.9 | 0.00 | 0.13 | 0.13 | 47 | 985.0 |
| 20260503204900 | 18 | 278 | 9.7 | 19.3 | 0.00 | 0.13 | 0.13 | 46 | 985.1 |
| 20260503204400 | 17 | 260 | 8.0 | 19.3 | 0.00 | 0.13 | 0.13 | 47 | 985.2 |
| 20260503203900 | 17 | 197 | 8.0 | 20.9 | 0.00 | 0.13 | 0.13 | 48 | 985.4 |
| 20260503203358 | 18 | 143 | 8.0 | 20.9 | 0.00 | 0.13 | 0.13 | 47 | 985.6 |
| 20260503202858 | 18 | 181 | 9.7 | 24.1 | 0.00 | 0.13 | 0.13 | 46 | 985.6 |
| 20260503202355 | 18 | 211 | 9.7 | 24.1 | 0.00 | 0.13 | 0.13 | 45 | 985.7 |
| 20260503201855 | 18 | 261 | 9.7 | 30.6 | 0.00 | 0.13 | 0.13 | 45 | 985.8 |
| 20260503201615 | 18 | 202 | 9.7 | 30.6 | 0.00 | 0.13 | 0.13 | 44 | 985.8 |
| 20260503200852 | 18 | 195 | 9.7 | 19.3 | 0.00 | 0.13 | 0.13 | 44 | 985.9 |
| 20260503200353 | 18 | 162 | 9.7 | 20.9 | 0.00 | 0.13 | 0.13 | 43 | 985.9 |
| 20260503195852 | 18 | 16 | 9.7 | 25.7 | 0.00 | 0.13 | 0.13 | 42 | 985.8 |
| 20260503195352 | 18 | 197 | 11.3 | 25.7 | 0.00 | 0.13 | 0.13 | 42 | 985.7 |
| 20260503195115 | 18 | 184 | 11.3 | 20.9 | 0.00 | 0.13 | 0.13 | 43 | 986.0 |
| 20260503194353 | 17 | 244 | 9.7 | 25.7 | 0.00 | 0.13 | 0.13 | 43 | 985.9 |
| 20260503194116 | 17 | 193 | 9.7 | 25.7 | 0.00 | 0.13 | 0.13 | 44 | 986.2 |
| 20260503193349 | 17 | 217 | 9.7 | 25.7 | 0.00 | 0.13 | 0.13 | 44 | 986.3 |
| 20260503192849 | 17 | 212 | 9.7 | 20.9 | 0.00 | 0.13 | 0.13 | 44 | 986.4 |
| 20260503192346 | 17 | 189 | 9.7 | 19.3 | 0.00 | 0.13 | 0.13 | 43 | 986.5 |
| 20260503192100 | 18 | 182 | 9.7 | 19.3 | 0.00 | 0.13 | 0.13 | 44 | 986.4 |
| 20260503191344 | 18 | 166 | 9.7 | 17.7 | 0.00 | 0.13 | 0.13 | 44 | 986.4 |
| 20260503190844 | 17 | 233 | 9.7 | 19.3 | 0.00 | 0.13 | 0.13 | 45 | 986.3 |
| 20260503190343 | 17 | 176 | 11.3 | 29.0 | 0.00 | 0.13 | 0.13 | 46 | 986.3 |
| 20260503190110 | 17 | 199 | 11.3 | 29.0 | 0.00 | 0.13 | 0.13 | 45 | 986.4 |
| 20260503185345 | 17 | 183 | 11.3 | 25.7 | 0.00 | 0.13 | 0.13 | 47 | 986.6 |
| 20260503184845 | 17 | 191 | 11.3 | 19.3 | 0.00 | 0.13 | 0.13 | 49 | 986.6 |
| 20260503184604 | 16 | 188 | 11.3 | 20.9 | 0.00 | 0.13 | 0.13 | 50 | 986.8 |
| 20260503183845 | 16 | 210 | 11.3 | 20.9 | 0.00 | 0.13 | 0.13 | 51 | 986.9 |
| 20260503183603 | 16 | 162 | 9.7 | 20.9 | 0.00 | 0.13 | 0.13 | 52 | 987.1 |
| 20260503182843 | 16 | 212 | 9.7 | 19.3 | 0.00 | 0.13 | 0.13 | 55 | 987.2 |
| 20260503182338 | 16 | 190 | 9.7 | 20.9 | 0.00 | 0.13 | 0.13 | 56 | 987.3 |
| 20260503181839 | 15 | 183 | 9.7 | 20.9 | 0.00 | 0.13 | 0.13 | 54 | 987.3 |
| 20260503181338 | 15 | 182 | 8.0 | 19.3 | 0.00 | 0.13 | 0.13 | 59 | 987.5 |
| 20260503180839 | 15 | 200 | 8.0 | 17.7 | 0.00 | 0.13 | 0.13 | 59 | 987.8 |
| 20260503180339 | 14 | 219 | 6.4 | 16.1 | 0.00 | 0.13 | 0.13 | 60 | 987.9 |
| 20260503175839 | 14 | 167 | 8.0 | 17.7 | 0.00 | 0.13 | 0.13 | 61 | 987.9 |
| 20260503175339 | 13 | 208 | 6.4 | 17.7 | 0.00 | 0.13 | 0.13 | 63 | 987.9 |
| 20260503174839 | 13 | 195 | 6.4 | 14.5 | 0.00 | 0.13 | 0.13 | 65 | 988.4 |
| 20260503174339 | 12 | 177 | 4.8 | 12.9 | 0.03 | 0.13 | 0.13 | 67 | 988.7 |
| 20260503173840 | 12 | 169 | 4.8 | 14.5 | 0.03 | 0.13 | 0.13 | 67 | 989.0 |
| 20260503173339 | 12 | 192 | 6.4 | 16.1 | 0.03 | 0.13 | 0.13 | 67 | 989.2 |
| 20260503172839 | 12 | 184 | 6.4 | 16.1 | 0.03 | 0.13 | 0.13 | 67 | 989.3 |
| 20260503172337 | 12 | 217 | 4.8 | 12.9 | 0.03 | 0.13 | 0.13 | 69 | 989.3 |
| 20260503171838 | 12 | 183 | 4.8 | 12.9 | 0.03 | 0.13 | 0.13 | 70 | 989.6 |
| 20260503171337 | 11 | 181 | 3.2 | 11.3 | 0.05 | 0.13 | 0.13 | 72 | 989.8 |
| 20260503171323 | 11 | 228 | 3.2 | 9.7 | 0.05 | 0.13 | 0.13 | 73 | 990.0 |
| 20260503170334 | 11 | 179 | 3.2 | 9.7 | 0.05 | 0.10 | 0.10 | 77 | 990.4 |
| 20260503150825 | 10 | 244 | 3.2 | 12.9 | 0.05 | 0.05 | 0.05 | 76 | 992.1 |
| 20260503150323 | 11 | 215 | 4.8 | 12.9 | 0.03 | 0.03 | 0.03 | 72 | 992.1 |
| 20260503131319 | 10 | 163 | 4.8 | 14.5 | 0.00 | 0.00 | 0.00 | 65 | 991.9 |
| 20260503130820 | 10 | 224 | 4.8 | 12.9 | 0.00 | 0.00 | 0.00 | 65 | 992.0 |
| 20260503130321 | 10 | 230 | 6.4 | 14.5 | 0.00 | 0.00 | 0.00 | 66 | 992.0 |
| 20260503110813 | 8 | 194 | 6.4 | 14.5 | 0.00 | 0.00 | 0.00 | 65 | 991.6 |
| 20260503110313 | 8 | 230 | 6.4 | 17.7 | 0.00 | 0.00 | 0.00 | 64 | 991.5 |
| 20260503090304 | 7 | 0 | 3.2 | 9.7 | 0.00 | 0.00 | 0.00 | 68 | 992.2 |
| 20260503081523 | 7 | 151 | 1.6 | 6.4 | 0.00 | 0.00 | 0.00 | 69 | 992.4 |
| 20260503080758 | 7 | 207 | 1.6 | 9.7 | 0.00 | 0.00 | 0.00 | 69 | 992.4 |
| 20260503080255 | 7 | 239 | 3.2 | 9.7 | 0.00 | 0.00 | 0.00 | 69 | 992.4 |
| 20260503072752 | 7 | 160 | 3.2 | 9.7 | 0.00 | 0.00 | 0.00 | 66 | 992.3 |
| 20260503072253 | 7 | 215 | 3.2 | 9.7 | 0.00 | 0.00 | 0.00 | 66 | 992.4 |
| 20260503071752 | 7 | 176 | 3.2 | 8.0 | 0.00 | 0.00 | 0.00 | 66 | 992.4 |
| 20260503071253 | 7 | 196 | 1.6 | 8.0 | 0.00 | 0.00 | 0.00 | 66 | 992.4 |
| 20260503070753 | 7 | 0 | 1.6 | 8.0 | 0.00 | 0.00 | 0.00 | 65 | 992.5 |
| 20260503070252 | 7 | 199 | 3.2 | 8.0 | 0.00 | 0.00 | 0.00 | 65 | 992.5 |
| 20260503060245 | 7 | 183 | 1.6 | 6.4 | 0.00 | 0.00 | 0.00 | 65 | 993.1 |
| 20260503054743 | 7 | 0 | 3.2 | 8.0 | 0.00 | 0.00 | 0.00 | 62 | 993.2 |
| 20260503054716 | 7 | 0 | 1.6 | 9.7 | 0.00 | 0.00 | 0.00 | 62 | 993.2 |
| 20260503053744 | 7 | 225 | 1.6 | 9.7 | 0.00 | 0.00 | 0.00 | 62 | 993.3 |
| 20260503053243 | 7 | 219 | 3.2 | 9.7 | 0.00 | 0.00 | 0.00 | 62 | 993.3 |
| 20260503052743 | 7 | 188 | 3.2 | 8.0 | 0.00 | 0.00 | 0.00 | 62 | 993.3 |
| 20260503052244 | 7 | 193 | 3.2 | 6.4 | 0.00 | 0.00 | 0.00 | 62 | 993.4 |
| 20260503051744 | 7 | 190 | 1.6 | 6.4 | 0.00 | 0.00 | 0.00 | 62 | 993.4 |
| 20260503051244 | 7 | 250 | 1.6 | 6.4 | 0.00 | 0.00 | 0.00 | 62 | 993.5 |
| 20260503050744 | 8 | 198 | 1.6 | 9.7 | 0.00 | 0.00 | 0.00 | 61 | 993.4 |
| 20260503050243 | 8 | 184 | 1.6 | 9.7 | 0.00 | 0.00 | 0.00 | 61 | 993.5 |
| 20260503045743 | 8 | 176 | 1.6 | 6.4 | 0.00 | 0.00 | 0.00 | 61 | 993.5 |
| 20260503045517 | 8 | 0 | 1.6 | 6.4 | 0.00 | 0.00 | 0.00 | 59 | 993.5 |
| 20260503044741 | 8 | 208 | 3.2 | 8.0 | 0.00 | 0.00 | 0.00 | 60 | 993.5 |
| 20260503044242 | 8 | 159 | 1.6 | 8.0 | 0.00 | 0.00 | 0.00 | 60 | 993.5 |
| 20260503043742 | 8 | 0 | 1.6 | 4.8 | 0.00 | 0.00 | 0.00 | 61 | 993.6 |
| 20260503043241 | 8 | 179 | 1.6 | 4.8 | 0.00 | 0.00 | 0.00 | 61 | 993.6 |
| 20260503042740 | 8 | 150 | 0.0 | 6.4 | 0.00 | 0.00 | 0.00 | 61 | 993.6 |
| 20260503042558 | 8 | 178 | 0.0 | 6.4 | 0.00 | 0.00 | 0.00 | 61 | 993.6 |
| 20260503041243 | 8 | 275 | 0.0 | 4.8 | 0.00 | 0.00 | 0.00 | 63 | 993.7 |
| 20260503040738 | 8 | 0 | 0.0 | 6.4 | 0.00 | 0.00 | 0.00 | 63 | 993.7 |
| 20260503040238 | 8 | 213 | 1.6 | 6.4 | 0.00 | 0.00 | 0.00 | 62 | 993.7 |